Weather History for Norfolk, NE

Change the Weather History Date:

Sunday, March 24, 2013

  Actual Average Record
Temperature  
Mean Temperature 24 °F 41 °F  
Max Temperature 29 °F 52 °F 84 °F (1967)
Min Temperature 18 °F 29 °F 2 °F (1934)
Degree Days  
Heating Degree Days 41 24  
Month to date heating degree days 812 696  
Since 1 July heating degree days 5733 5789  
Cooling Degree Days 0 0  
Month to date cooling degree days 0 0  
Year to date cooling degree days 0 0  
Moisture  
Dew Point 17 °F    
Average Humidity 76    
Maximum Humidity 88    
Minimum Humidity 63    
Precipitation  
Precipitation T in 0.07 in 1.17 in (1962)
Month to date precipitation 1.09 1.25  
Year to date precipitation 1.99 2.60  
Snow  
Snow T in 0.10 in - ()
Month to date snowfall 5.2 4.0  
Since 1 July snowfall 20.1 26.8  
Snow Depth T in    
Sea Level Pressure  
Sea Level Pressure 30.13 in    
Wind  
Wind Speed 19 mph (NW)    
Max Wind Speed 26 mph    
Max Gust Speed 32 mph    
Visibility 8 miles    
Events Snow    
T = Trace of Precipitation, MM = Missing Value Source: NWS Daily Summary

Daily Weather History Graph

Daily Weather History Graph

Search for Another Location

Airport:

Trip Planner

Search our weather history database for the weather conditions in past years. The results will help you decide how hot, cold, wet, or windy it might be!

Date:

Astronomy

Mar. 24, 2013 Rise Set
Actual Time 7:25 AM CDT 7:46 PM CDT
Civil Twilight 6:57 AM CDT 8:14 PM CDT
Nautical Twilight 6:24 AM CDT 8:47 PM CDT
Astronomical Twilight 5:51 AM CDT 9:21 PM CDT
Moon 5:14 PM CDT (3/24) 5:39 AM CDT (3/24)
Length of Visible Light 13h 16m
Length of Day
12h 21m
Waxing Gibbous, 92% of the Moon is Illuminated
Mar 24
Waxing Gibbous
Mar 27
Full
Apr 2
Last Quarter
Apr 10
New
Apr 18
First Quarter

Hourly Weather History & Observations

Time (CDT) Temp. Windchill Dew Point Humidity Pressure Visibility Wind Dir Wind Speed Gust Speed Precip Events Conditions
12:56 AM 25.0 °F 11.7 °F 19.9 °F 81% 30.18 in 10.0 mi NNW 17.3 mph 27.6 mph 0.00 in   Overcast
1:31 AM 24.8 °F 10.0 °F 17.6 °F 74% 30.12 in 10.0 mi NNW 21.9 mph 26.5 mph N/A   Overcast
1:56 AM 24.1 °F 10.1 °F 17.1 °F 75% 30.18 in 10.0 mi NNW 18.4 mph 25.3 mph N/A   Overcast
2:51 AM 23.0 °F 8.7 °F 15.8 °F 74% 30.12 in 10.0 mi NNW 18.4 mph - N/A   Overcast
2:56 AM 23.0 °F 8.3 °F 17.1 °F 78% 30.17 in 10.0 mi NNW 19.6 mph - N/A   Overcast
3:56 AM 21.9 °F 8.7 °F 16.0 °F 78% 30.17 in 10.0 mi NNW 15.0 mph - N/A   Scattered Clouds
4:20 AM 21.2 °F 7.3 °F 17.6 °F 86% 30.10 in 10.0 mi NNW 16.1 mph - N/A   Mostly Cloudy
4:56 AM 21.0 °F 7.1 °F 16.0 °F 81% 30.16 in 10.0 mi NW 16.1 mph 24.2 mph N/A   Overcast
5:56 AM 21.0 °F 6.6 °F 16.0 °F 81% 30.15 in 10.0 mi NNW 17.3 mph 24.2 mph N/A   Overcast
6:09 AM 19.4 °F 6.6 °F 15.8 °F 86% 30.10 in 10.0 mi NNW 12.7 mph - N/A   Overcast
6:56 AM 19.9 °F 7.3 °F 14.0 °F 78% 30.17 in 10.0 mi NNW 12.7 mph - N/A   Overcast
7:56 AM 18.0 °F 0.9 °F 10.9 °F 74% 30.16 in 10.0 mi NW 21.9 mph - N/A   Clear
8:56 AM 18.0 °F 2.2 °F 10.9 °F 74% 30.16 in 10.0 mi NW 18.4 mph 24.2 mph N/A   Clear
9:56 AM 21.0 °F 4.6 °F 14.0 °F 74% 30.15 in 10.0 mi NNW 23.0 mph 27.6 mph N/A   Clear
10:56 AM 21.9 °F 6.9 °F 14.0 °F 72% 30.15 in 10.0 mi NW 19.6 mph 25.3 mph N/A   Clear
11:56 AM 25.0 °F 9.9 °F 16.0 °F 69% 30.13 in 10.0 mi NW 23.0 mph 27.6 mph N/A   Clear
12:42 PM 26.6 °F 12.4 °F 15.8 °F 64% 30.06 in 10.0 mi NW 21.9 mph 29.9 mph N/A   Mostly Cloudy
12:56 PM 25.0 °F 10.6 °F 17.1 °F 72% 30.13 in 10.0 mi NNW 20.7 mph - N/A   Mostly Cloudy
1:56 PM 25.0 °F 10.2 °F 16.0 °F 69% 30.13 in 6.0 mi NW 21.9 mph - 0.00 in Snow Light Snow
2:26 PM 26.6 °F 11.7 °F 15.8 °F 64% 30.05 in 9.0 mi NNW 24.2 mph 29.9 mph 0.00 in   Overcast
2:56 PM 26.1 °F 12.0 °F 15.1 °F 63% 30.12 in 9.0 mi NNW 20.7 mph 26.5 mph 0.00 in Snow Light Snow
3:56 PM 27.0 °F 12.8 °F 16.0 °F 63% 30.12 in 9.0 mi NNW 21.9 mph 27.6 mph 0.00 in Snow Light Snow
4:56 PM 27.0 °F 14.7 °F 16.0 °F 63% 30.12 in 7.0 mi NW 16.1 mph 27.6 mph 0.00 in Snow Light Snow
5:38 PM 26.6 °F 13.1 °F 17.6 °F 69% 30.05 in 5.0 mi NW 19.6 mph 25.3 mph 0.00 in Snow Light Snow
5:56 PM 26.1 °F 12.3 °F 17.1 °F 69% 30.12 in 7.0 mi NW 19.6 mph 24.2 mph 0.00 in Snow Light Snow
6:13 PM 26.6 °F 13.4 °F 17.6 °F 69% 30.06 in 7.0 mi NW 18.4 mph 27.6 mph 0.00 in Snow Light Snow
6:47 PM 24.8 °F 10.3 °F 17.6 °F 74% 30.06 in 7.0 mi NW 20.7 mph 26.5 mph 0.00 in Snow Light Snow
6:56 PM 25.0 °F 10.9 °F 17.1 °F 72% 30.13 in 7.0 mi NW 19.6 mph 32.2 mph 0.00 in Snow Light Snow
7:05 PM 24.8 °F 11.1 °F 17.6 °F 74% 30.06 in 7.0 mi NNW 18.4 mph - 0.00 in Snow Light Snow
7:37 PM 24.8 °F 10.7 °F 17.6 °F 74% 30.07 in 6.0 mi NW 19.6 mph 25.3 mph 0.00 in Snow Light Snow
7:56 PM 24.1 °F 11.0 °F 18.0 °F 77% 30.15 in 6.0 mi NW 16.1 mph 23.0 mph 0.00 in Snow Light Snow
8:40 PM 24.8 °F 12.4 °F 19.4 °F 80% 30.09 in 10.0 mi NW 15.0 mph 23.0 mph 0.00 in   Overcast
8:56 PM 24.1 °F 10.6 °F 19.0 °F 81% 30.16 in 10.0 mi NW 17.3 mph 21.9 mph 0.00 in   Overcast
9:32 PM 24.8 °F 12.4 °F 19.4 °F 80% 30.09 in 6.0 mi NW 15.0 mph - 0.00 in Snow Light Snow
9:56 PM 25.0 °F 11.3 °F 19.9 °F 81% 30.17 in 7.0 mi NW 18.4 mph - 0.00 in Snow Light Snow
10:44 PM 24.8 °F 11.9 °F 21.2 °F 86% 30.10 in 3.0 mi NNW 16.1 mph - 0.00 in Snow Light Snow
10:56 PM 25.0 °F 11.7 °F 21.0 °F 85% 30.17 in 2.5 mi NNW 17.3 mph - 0.00 in Snow Light Snow
11:32 PM 24.8 °F 11.1 °F 21.2 °F 86% 30.11 in 2.5 mi NNW 18.4 mph 26.5 mph 0.00 in Snow Light Snow
11:53 PM 24.8 °F 11.1 °F 21.2 °F 86% 30.11 in 3.0 mi NNW 18.4 mph 27.6 mph 0.00 in Snow Light Snow
11:56 PM 25.0 °F 11.3 °F 21.9 °F 88% 30.18 in 3.0 mi NNW 18.4 mph 27.6 mph 0.00 in Snow Light Snow